Regional Weather Roundup
Issued by NWS

Home | Current Version | Previous Version | Graphics & Text | Print | Product List | Glossary Off
Versions: 1 2 3 4 5 6 7 8 9 10 11 12 13 14 15 16 17 18 19 20 21 22 23 24 25 26 27 28 29 30 31 32 33 34 35 36 37 38 39 40 41 42 43 44 45 46 47 48 49 50

808
ASUS43 KDMX 101103
RWRIA

WEATHER ROUNDUP FOR IOWA
NATIONAL WEATHER SERVICE DES MOINES IA
500 AM CST WED FEB 10 2016

NOTE: "FAIR" INDICATES FEW OR NO CLOUDS BELOW 12,000 FEET WITH NO
SIGNIFICANT WEATHER AND/OR OBSTRUCTIONS TO VISIBILITY.

* - THESE STATIONS ARE NOT NWS STATIONS...THUS NOT UNDER NWS
QUALITY CONTROL.  THEY ALSO DO NOT REPORT WEATHER SUCH
AS PRECIPITATION OR FOG.

IAZ001>003-012>014-020>022-031>034-043>046-101200-
   NORTHWEST IOWA

CITY           SKY/WX    TMP DP  RH WIND       PRES   REMARKS
CARROLL *      MOCLDY    18  12  79 CALM      30.09F
CHEROKEE *     CLOUDY    19  15  86 CALM      30.08R
DENISON *      CLOUDY    19  14  79 CALM      30.06F
LE MARS *      LGT SNOW  21  18  86 SE9       30.06F WCI  11
ORANGE CITY *  FLURRIES  19  18  93 CALM      30.04S
SHELDON *      LGT SNOW  18  16  93 E7        30.04S WCI   8
SIOUX CITY     CLOUDY    21  15  78 SE9       30.05F WCI  11
SPENCER        CLOUDY    16   8  71 E8        30.07S WCI   5
STORM LAKE *   CLOUDY    18  16  93 CALM      30.06S
$$

IAZ055>058-069>071-079>083-090>094-101200-
   SOUTHWEST IOWA

CITY           SKY/WX    TMP DP  RH WIND       PRES   REMARKS
ATLANTIC *     CLOUDY    19  16  86 SW5       30.10F WCI  13
AUDUBON *      MOCLDY    19  14  79 CALM      30.08F
CLARINDA *     CLOUDY    21  18  86 CALM      30.14S
COUNCIL BLFS * CLOUDY    21  16  79 S6        30.08F WCI  14
CRESTON *      CLOUDY    18  14  86 CALM      30.12F
HARLAN  *      CLOUDY    18  14  86 S3        30.11F
LAMONI         CLOUDY    19  13  77 SW5       30.11F WCI  12
RED OAK *      CLOUDY    23  18  80 CALM      30.11F
SHENANDOAH *   CLOUDY    25  19  80 S5        30.13F WCI  19
$$

IAZ047>049-059>061-072>074-084-101200-
   CENTRAL IOWA

CITY           SKY/WX    TMP DP  RH WIND       PRES   REMARKS
AMES           CLOUDY    13   5  70 N7        30.12F WCI   3
ANKENY *       CLOUDY    14   5  67 NW5       30.13F WCI   6
BOONE *        CLOUDY    12   5  73 N5        30.10S WCI   4
CHARITON *     CLOUDY    14   9  79 CALM      30.13S
DES MOINES     CLOUDY    16   6  65 NE5       30.13S WCI   9
GRINNELL*      CLOUDY    10   5  79 NW7       30.11R WCI   0
KNOXVILLE *    CLOUDY    14   5  67 NW6       30.12S WCI   5
MARSHALLTOWN   CLOUDY     8   3  80 W6        30.10R WCI  -2
NEWTON *       CLOUDY    12   5  73 NW6       30.12S WCI   3
PELLA *        CLOUDY    13   7  76 CALM      30.14S
$$

IAZ004>006-015-016-023>025-035-036-101200-
   NORTH CENTRAL IOWA

CITY           SKY/WX    TMP DP  RH WIND       PRES   REMARKS
ALGONA *       CLOUDY    10   5  79 N5        30.09R WCI   2
CLARION *      CLOUDY     9   3  78 NW3       30.10S
ESTHERVILLE    CLOUDY    10   3  73 NE8       30.08S WCI  -2
FORT DODGE *   CLOUDY    12   3  67 CALM      30.10F
MASON CITY     CLOUDY     4   0  83 N9        30.09F WCI -10
FOREST CITY *  CLOUDY     7   1  78 N7        30.08F WCI  -5
WEBSTER CITY * CLOUDY    10   5  79 N6        30.09F WCI   1
IOWA FALLS *   CLOUDY     7   3  85 NW3       30.11S
$$

IAZ007>011-017>019-026>030-037>042-050>054-066-101200-
   NORTHEAST IOWA

CITY           SKY/WX    TMP DP  RH WIND       PRES   REMARKS
CEDAR RAPIDS   CLOUDY     6   2  83 NW10      30.09R WCI  -9
CHARLES CITY * MOCLDY    -2  -6  84 NW6       30.08S WCI -14
CLINTON *      CLEAR      4   0  83 NW9       30.08S WCI -10
DECORAH *      CLOUDY    -2  -8  78 NW7       30.05R WCI -16
DUBUQUE        CLEAR      5  -4  66 NW13      30.03R WCI -12
MONTICELLO *   CLOUDY     5  -2  72 NW7       30.07S WCI  -7
OELWEIN *      CLOUDY     0  -6  78 W6        30.08R WCI -12
WATERLOO       PTCLDY     1  -3  83 W7        30.10S WCI -12
$$

IAZ064-065-067-068-078-101200-
   EAST CENTRAL IOWA

CITY           SKY/WX    TMP DP  RH WIND       PRES   REMARKS
DAVENPORT      CLEAR      6  -1  73 NW9       30.08F WCI  -8
IOWA CITY      CLOUDY     8   1  73 NW9       30.13R WCI  -5
MT. PLEASANT * CLOUDY    13   6  76 W7        30.13R WCI   2
MUSCATINE *    CLEAR      7   1  78 W6        30.13R WCI  -3
QUAD CITIES    PTCLDY     8  -1  66 W7        30.09F WCI  -3
$$

IAZ062-063-075>077-085>089-095>099-101200-
   SOUTHEAST IOWA

CITY           SKY/WX    TMP DP  RH WIND       PRES   REMARKS
BURLINGTON     CLEAR      8   3  80 NW5       30.11S WCI   0
FAIRFIELD *    CLOUDY    10   3  72 W6        30.13R WCI   1
FORT MADISON * PTCLDY     9   5  85 W6        30.12S WCI  -1
KEOKUK *       PTCLDY    12   7  79 W6        30.13S WCI   3
OSKALOOSA *      N/A     12   7  81 W7        30.13R WCI   1
OTTUMWA        PTCLDY    12   6  77 NW8       30.14R WCI   0
WASHINGTON *   CLEAR      9   3  78 NW8       30.13S WCI  -4
$$

ABBREVIATIONS USED IN REMARKS
   TC - TEMPERATURES IN CELSIUS
  WCI - WIND CHILL INDEX
   HX - HEAT INDEX
  VSB - VISIBILITY
$$





USA.gov is the U.S. government's official web portal to all federal, state and local government web resources and services.